Погода в Старом Осколе

Россия / Белгородская область     51°17′53″N   37°50′00″E
темп.,
°C
ветер,
м/с
пор.,
м/с
влажн.,
%
обл.,
%
осадки,
мм/ч
давл.,
гПа
погр.,
м
20 апреля, вт
вт2000:00+9всв4784100 0.4 1015230
03:00+7всв479388 0.4 1014266
06:00+7в4894100 0.0 1014337
09:00+9в61088100 0.0 1012608
12:00+11в6878100 0.4 1010919
15:00+11всв7980100 0.8 1008922
18:00+8всв61292100 3.9 1005700
21:00+7св61193100 9.3 1003698
21 апреля, ср
ср2100:00+6св4794100 1.3 1001383
03:00+5с4795100 6.3 1001321
06:00+5зсз51090100 1.6 1004659
09:00+6з4787100 1.6 1008550
12:00+8юз4679100 0.1 10101003
15:00+8юз3789100 0.2 1012563
18:00+10з48716 0.3 10131126
21:00+7ююз378541 0.5 1015156
22 апреля, чт
чт2200:00+6юз389022 0.1 1016211
03:00+5зюз23935 0.1 101773
06:00+4юз23915 0.0 101867
09:00+10ююз35675 0.0 1019503
12:00+14ююз564868 0.0 10191740
15:00+15юз575185 0.3 10191767
18:00+14ююз366356 0.6 1019705
21:00+10ююз3676100 0.8 1020129
23 апреля, пт
пт2300:00+9ю367727 0.0 1020111
03:00+9ю357883 0.0 102098
06:00+10ю2574100 0.0 1020127
09:00+13ю486095 0.0 1020541
12:00+17ю684397 0.4 10192415
15:00+16ю5747100 0.4 10171438
18:00+15ююв58565 0.4 1016717
21:00+11ююв377639 0.9 1016161
24 апреля, сб
сб2400:00+10ю3107565 0.1 1014275
03:00+9ю2385100 0.1 101368
06:00+8ю3889100 0.4 1012317
09:00+5зсз81090100 1.8 1013570
12:00+6зсз6979100 3.0 1014956
15:00+11з71037100 3.5 10132742
18:00+9з69555 0.2 10141642
21:00+6з49634 0.3 1015516